Winnemucca, NV

2:25 AM PDT on July 30, 2016 (GMT -0700)
Winnemucca Municipal

Weather History for KWMC - March, 2013

Change the Weather History Date:

Thursday, March 7, 2013

  Actual Average Record
Temperature  
Mean Temperature 33 °F 40 °F  
Max Temperature 44 °F 54 °F 69 °F (1979)
Min Temperature 21 °F 26 °F 9 °F (1950)
Degree Days  
Heating Degree Days 32 25  
Month to date heating degree days 172 181  
Since 1 July heating degree days 4938 4770  
Cooling Degree Days 0 0  
Month to date cooling degree days 0 0  
Year to date cooling degree days 0 0  
Moisture  
Dew Point 20 °F    
Average Humidity 59    
Maximum Humidity 84    
Minimum Humidity 33    
Precipitation  
Precipitation 0.00 in 0.02 in 0.41 in (1918)
Month to date precipitation 0.16 0.18  
Year to date precipitation 0.62 1.71  
Snow  
Snow 0.00 in 0.10 in 4.00 in (1935)
Month to date snowfall T 0.8  
Since 1 July snowfall 21.9 16.8  
Snow Depth 0.00 in    
Sea Level Pressure  
Sea Level Pressure 29.93 in    
Wind  
Wind Speed 8 mph (ENE)    
Max Wind Speed 17 mph    
Max Gust Speed 22 mph    
Visibility 10 miles    
Events      
T = Trace of Precipitation, MM = Missing Value Source: NWS Daily Summary

Daily Weather History Graph

Daily Weather History Graph

Search for Another Location

Airport or City:

Trip Planner

Search our weather history database for the weather conditions in past years. The results will help you decide how hot, cold, wet, or windy it might be!

Date:

Astronomy

Mar. 07, 2013 Rise Set
Actual Time 6:15 AM PST 5:49 PM PST
Civil Twilight 5:47 AM PST 6:16 PM PST
Nautical Twilight 5:16 AM PST 6:48 PM PST
Astronomical Twilight 4:44 AM PST 7:20 PM PST
Moon 3:20 AM PST (3/7) 1:41 PM PST (3/7)
Length of Visible Light 12h 28m
Length of Day
11h 34m
Waning Crescent, 19% of the Moon is Illuminated
Mar 7
Waning Crescent
Mar 11
New
Mar 19
First Quarter
Mar 27
Full
Apr 2
Last Quarter

Hourly Weather History & Observations

Time (PST) Temp. Windchill Dew Point Humidity Pressure Visibility Wind Dir Wind Speed Gust Speed Precip Events Conditions
12:56 AM 26.1 °F - 17.1 °F 69% 29.98 in 10.0 mi Calm Calm - N/A   Clear
1:56 AM 21.9 °F 14.5 °F 15.1 °F 75% 29.98 in 10.0 mi North 5.8 mph - N/A   Clear
2:56 AM 21.9 °F 14.5 °F 16.0 °F 78% 29.97 in 10.0 mi ESE 5.8 mph - N/A   Mostly Cloudy
3:56 AM 23.0 °F - 18.0 °F 81% 29.98 in 10.0 mi Calm Calm - N/A   Overcast
4:56 AM 26.1 °F 20.5 °F 19.9 °F 78% 29.97 in 10.0 mi SE 4.6 mph - N/A   Overcast
5:56 AM 25.0 °F - 18.0 °F 75% 29.99 in 10.0 mi Calm Calm - N/A   Overcast
6:56 AM 28.0 °F 20.0 °F 18.0 °F 66% 29.99 in 9.0 mi East 8.1 mph - N/A   Mostly Cloudy
7:56 AM 33.1 °F 24.9 °F 18.0 °F 54% 29.99 in 10.0 mi NE 10.4 mph 17.3 mph N/A   Overcast
8:56 AM 35.1 °F 27.4 °F 19.0 °F 52% 29.98 in 10.0 mi NE 10.4 mph - N/A   Partly Cloudy
9:56 AM 41.0 °F 32.8 °F 19.0 °F 41% 29.95 in 10.0 mi NE 16.1 mph 19.6 mph N/A   Clear
10:56 AM 42.1 °F 34.9 °F 16.0 °F 35% 29.93 in 10.0 mi NNE 13.8 mph - N/A   Clear
11:56 AM 43.0 °F 37.2 °F 16.0 °F 34% 29.92 in - North 10.4 mph - N/A   Unknown
12:56 PM - - - N/A% 29.88 in 10.0 mi ESE 8.1 mph - N/A   Mostly Cloudy
1:56 PM 43.0 °F 41.3 °F 17.1 °F 35% 29.91 in 10.0 mi SE 3.5 mph - N/A   Overcast
2:56 PM 43.0 °F 37.7 °F 21.0 °F 42% 29.91 in 10.0 mi NNE 9.2 mph - N/A   Overcast
3:56 PM 43.0 °F 38.8 °F 23.0 °F 45% 29.90 in 10.0 mi Variable 6.9 mph - N/A   Overcast
4:56 PM 41.0 °F 33.1 °F 23.0 °F 49% 29.90 in 10.0 mi NE 15.0 mph - N/A   Overcast
5:56 PM 39.0 °F 30.6 °F 24.1 °F 55% 29.92 in 10.0 mi NE 15.0 mph - N/A   Overcast
6:56 PM 37.9 °F 32.1 °F 25.0 °F 60% 29.91 in 10.0 mi ENE 8.1 mph - N/A   Mostly Cloudy
7:56 PM 37.0 °F 29.8 °F 24.1 °F 59% 29.89 in 10.0 mi ENE 10.4 mph - N/A   Partly Cloudy
8:56 PM 33.1 °F 27.7 °F 26.1 °F 75% 29.89 in 10.0 mi ESE 5.8 mph - N/A   Clear
9:56 PM 27.0 °F 21.6 °F 23.0 °F 85% 29.89 in 10.0 mi SSW 4.6 mph - N/A   Clear
10:56 PM 26.1 °F 21.9 °F 21.9 °F 84% 29.89 in 10.0 mi NNE 3.5 mph - N/A   Overcast
11:56 PM 28.9 °F 23.9 °F 24.1 °F 82% 29.88 in 10.0 mi NE 4.6 mph - N/A   Scattered Clouds